Location: Bayview
(38.0070°N, 122.3188°W)
Time: 12:00:55
(UTC+00:00)

Cosmos 371 Rocket - Pass Details

Date: 29 June 2022
Orbit: 683 x 698 km, 74.0° (Epoch: 14 August)

Event Time Altitude Azimuth Distance (km) Brightness Sun altitude
Rises 12:13:14 0° 342° (NNW) 3,054 6.9 -6.8°
Reaches altitude 10° 12:15:32 10° 343° (NNW) 2,136 6.1 -6.4°
Maximum altitude 12:20:21 83° 71° (ENE) 696 3.4 -5.7°
Drops below altitude 10° 12:25:10 10° 160° (SSE) 2,129 5.7 -4.9°
Sets 12:27:28 0° 161° (SSE) 3,043 6.4 -4.5°
